Weather History for Budapest Ferihegy, Hungary

Change the Weather History Date:

Tuesday, February 19, 2013

  Actual Average Record
Temperature  
Mean Temperature 31 °F -  
Max Temperature 39 °F 46 °F 60 °F (1998)
Min Temperature 23 °F 28 °F 6 °F (2009)
Degree Days  
Heating Degree Days 34    
Moisture  
Dew Point 30 °F    
Average Humidity 91    
Maximum Humidity 100    
Minimum Humidity 65    
Precipitation  
Precipitation 0.00 in - - ()
Sea Level Pressure  
Sea Level Pressure 29.96 in    
Wind  
Wind Speed 5 mph ()    
Max Wind Speed 13 mph    
Max Gust Speed -    
Visibility 3.0 miles    
Events Rain , Snow    
Averages and records for this station are not official NWS values.
T = Trace of Precipitation, MM = Missing Value Source: Averaged Metar Reports

Daily Weather History Graph

Daily Weather History Graph

Search for Another Location

Airport:

Trip Planner

Search our weather history database for the weather conditions in past years. The results will help you decide how hot, cold, wet, or windy it might be!

Date:

Astronomy

Feb. 19, 2013 Rise Set
Actual Time 6:41 AM CET 5:12 PM CET
Civil Twilight 6:10 AM CET 5:44 PM CET
Nautical Twilight 5:34 AM CET 6:19 PM CET
Astronomical Twilight 4:59 AM CET 6:55 PM CET
Moon 11:17 AM CET (2/19) 2:10 AM CET (2/19)
Length of Visible Light 11h 33m
Length of Day
10h 31m
Waxing Gibbous, 65% of the Moon is Illuminated
Feb 19
Waxing Gibbous
Feb 25
Full
Mar 4
Last Quarter
Mar 11
New
Mar 19
First Quarter

Hourly Weather History & Observations

Time (CET) Temp. Windchill Dew Point Humidity Pressure Visibility Wind Dir Wind Speed Gust Speed Precip Events Conditions
12:00 AM 26.6 °F - 26.6 °F 100% 30.09 in 2.2 mi Variable 2.3 mph - N/A   Scattered Clouds
12:30 AM 24.8 °F - 24.8 °F 100% 30.09 in 1.9 mi Variable 1.2 mph - N/A   Scattered Clouds
1:00 AM 24.8 °F - 24.8 °F 100% 30.09 in 1.6 mi Variable 2.3 mph - N/A   Scattered Clouds
1:30 AM 23.0 °F - 23.0 °F 100% 30.09 in 1.2 mi Variable 2.3 mph - N/A   Scattered Clouds
2:00 AM 23.0 °F 18.4 °F 23.0 °F 100% 30.09 in 1.2 mi Variable 3.5 mph - N/A   Mostly Cloudy
2:30 AM 24.8 °F 20.5 °F 24.8 °F 100% 30.06 in 1.2 mi Variable 3.5 mph - N/A   Mist
3:00 AM 24.8 °F - 24.8 °F 100% 30.06 in 1.2 mi Variable 2.3 mph - N/A   Mist
3:30 AM 24.8 °F - 24.8 °F 100% 30.06 in 1.2 mi Variable 2.3 mph - N/A   Mist
4:00 AM 24.8 °F 20.5 °F 24.8 °F 100% 30.04 in 1.2 mi Variable 3.5 mph - N/A   Mist
4:30 AM 26.6 °F - 26.6 °F 100% 30.04 in 1.2 mi Variable 1.2 mph - N/A   Mist
5:00 AM 26.6 °F - 26.6 °F 100% 30.04 in 1.6 mi Variable 2.3 mph - N/A   Mist
5:30 AM 26.6 °F - 26.6 °F 100% 30.04 in 1.6 mi Variable 2.3 mph - N/A   Mist
6:00 AM 26.6 °F - 26.6 °F 100% 30.04 in 1.6 mi Calm Calm - N/A   Mist
6:30 AM 26.6 °F - 26.6 °F 100% 30.01 in 1.4 mi Variable 2.3 mph - N/A   Mist
7:00 AM 26.6 °F 22.6 °F 26.6 °F 100% 30.01 in 1.5 mi Variable 3.5 mph - N/A   Mist
7:30 AM 28.4 °F 23.3 °F 28.4 °F 100% 30.01 in 1.4 mi SE 4.6 mph - N/A   Mist
8:00 AM 28.4 °F 24.6 °F 28.4 °F 100% 30.01 in 1.1 mi Variable 3.5 mph - N/A   Mostly Cloudy
8:30 AM 30.2 °F 25.4 °F 28.4 °F 93% 30.01 in 1.0 mi South 4.6 mph - N/A   Mostly Cloudy
9:30 AM 30.2 °F 25.4 °F 30.2 °F 100% 30.01 in 1.0 mi South 4.6 mph - N/A   Mostly Cloudy
10:00 AM 32.0 °F 26.4 °F 30.2 °F 93% 29.98 in 1.6 mi South 5.8 mph - N/A   Mist
10:30 AM 33.8 °F 28.6 °F 30.2 °F 87% 29.98 in 1.9 mi SSW 5.8 mph - N/A   Mist
11:00 AM 35.6 °F 28.6 °F 30.2 °F 81% 29.98 in 1.9 mi SSW 9.2 mph - N/A   Mist
11:30 AM 35.6 °F 28.6 °F 30.2 °F 81% 29.98 in 2.5 mi SW 9.2 mph - N/A   Mist
12:00 PM 35.6 °F 28.0 °F 33.8 °F 93% 29.98 in 2.8 mi SW 10.4 mph - N/A   Mist
12:30 PM 35.6 °F 28.6 °F 33.8 °F 93% 29.95 in 3.1 mi SSW 9.2 mph - N/A   Mostly Cloudy
1:00 PM 37.4 °F 30.3 °F 33.8 °F 87% 29.95 in 3.1 mi SSW 10.4 mph - N/A   Mostly Cloudy
1:30 PM 37.4 °F 30.3 °F 33.8 °F 87% 29.95 in 3.1 mi SSW 10.4 mph - N/A   Mist
2:30 PM 39.2 °F 33.6 °F 30.2 °F 70% 29.92 in 5.0 mi SSW 8.1 mph - N/A   Mostly Cloudy
3:00 PM 39.2 °F 32.5 °F 30.2 °F 70% 29.89 in 5.0 mi SSW 10.4 mph - N/A   Mostly Cloudy
3:30 PM 39.2 °F 32.5 °F 30.2 °F 70% 29.89 in 6.2 mi SSW 10.4 mph - N/A   Mostly Cloudy
4:00 PM 39.2 °F 32.5 °F 30.2 °F 70% 29.86 in 6.2 mi SSW 10.4 mph - N/A   Mostly Cloudy
4:30 PM 39.2 °F 32.0 °F 28.4 °F 65% 29.86 in 6.2 mi SSW 11.5 mph - N/A   Mostly Cloudy
5:00 PM 39.2 °F 31.6 °F 28.4 °F 65% 29.86 in 6.2 mi SW 12.7 mph - N/A   Mostly Cloudy
5:30 PM 39.2 °F 32.5 °F 28.4 °F 65% 29.86 in 6.2 mi SSW 10.4 mph - N/A   Mostly Cloudy
6:00 PM 37.4 °F 29.3 °F 30.2 °F 75% 29.86 in 6.2 mi SW 12.7 mph - N/A Rain , Snow Light Rain
6:30 PM 37.4 °F 29.8 °F 32.0 °F 81% 29.86 in 6.2 mi SW 11.5 mph - N/A Rain , Snow Light Rain
7:00 PM 35.6 °F 27.5 °F 33.8 °F 93% 29.86 in 6.2 mi WSW 11.5 mph - N/A   Light Drizzle
7:30 PM 35.6 °F 28.6 °F 33.8 °F 93% 29.86 in 6.2 mi WSW 9.2 mph - N/A   Light Drizzle
8:00 PM 35.6 °F 28.6 °F 33.8 °F 93% 29.86 in 6.2 mi WSW 9.2 mph - N/A   Light Drizzle
8:30 PM 35.6 °F 29.9 °F 35.6 °F 100% 29.86 in 4.3 mi WSW 6.9 mph - N/A Rain , Snow Light Rain
9:00 PM 33.8 °F 26.4 °F 33.8 °F 100% 29.86 in 3.1 mi WSW 9.2 mph - N/A Rain , Snow Light Rain
9:30 PM 33.8 °F 26.4 °F 33.8 °F 100% 29.86 in 2.5 mi SW 9.2 mph - N/A Rain , Snow Light Rain
10:00 PM 33.8 °F 26.4 °F 33.8 °F 100% 29.86 in 1.9 mi SW 9.2 mph - N/A Rain , Snow Light Rain
10:30 PM 33.8 °F 25.8 °F 33.8 °F 100% 29.86 in 1.9 mi SW 10.4 mph - N/A Rain , Snow Light Rain
11:00 PM 32.0 °F 23.6 °F 32.0 °F 100% 29.86 in 1.9 mi SW 10.4 mph - N/A Rain , Snow Light Rain
11:30 PM 33.8 °F 24.8 °F 33.8 °F 100% 29.86 in 2.5 mi SW 12.7 mph - N/A Rain , Snow Light Rain